< < Back
Terminal Aerodrome Forecast


Current Version              Previous Versions:   1  2  3  4  5  6  7  8  9  

Terminal Aerodrome Forecast

635
FTUS42 KJAX 251000 AAA
TAFSSI
TAF AMD
KSSI 251011Z 2510/2606 VRB02KT P6SM SKC
     FM251400 36007KT P6SM SKC
     FM251900 05007KT P6SM SKC
     FM260200 00000KT P6SM SKC=



Latest METAR

285
SAUS70 KWBC 251400 RRI
MTRSSI
METAR KSSI 251353Z AUTO 32007KT 10SM CLR 17/12 A3003 RMK AO2 SLP170
T01670117


USA.gov is the U.S. government's official web portal to all federal, state and local government web resources and services.